Location: Aultman
(40.9284°N, 81.4173°W)
Time: 15:13:21
(UTC+00:00)

Cosmos 1092 Rocket - Pass Details

Date: 24 January 2021
Orbit: 954 x 995 km, 83.0° (Epoch: 01 March)

Event Time Altitude Azimuth Distance (km) Brightness Sun altitude
Rises 23:44:05 0° 181° (S) 3,650 7.2 -13.4°
Reaches altitude 10° 23:46:35 10° 180° (S) 2,702 6.5 -13.9°
Maximum altitude 23:52:45 78° 95° (E) 988 3.9 -15.0°
Drops below altitude 10° 23:58:55 10° 10° (N) 2,697 6.1 -16.1°
Sets 00:01:25 0° 9° (N) 3,644 6.8 -16.6°
